Location: Mississauga
(43.5802°N, 79.6166°W)
Time: 09:43:27
(UTC-04:00)

Cosmos 1437 Rocket - Visible Passes

Search period start: 26 August 2016 00:00
Search period end: 05 September 2016 00:00
Orbit: 511 x 565 km, 81.2° (Epoch: 24 August)

Date Brightness Start Highest point End Pass type
(mag) Time Alt. Az. Time Alt. Az. Time Alt. Az.
26 Aug 5.6 02:22:27 17° NNE 02:22:27 17° NNE 02:23:31 10° NNE visible
27 Aug 5.7 02:14:29 16° NNE 02:14:29 16° NNE 02:15:21 10° NNE visible
28 Aug 5.8 02:06:30 14° NNE 02:06:30 14° NNE 02:07:11 10° NNE visible
29 Aug 6.0 01:58:31 13° NNE 01:58:31 13° NNE 01:59:01 10° NNE visible
30 Aug 6.0 01:50:31 12° NNE 01:50:31 12° NNE 01:50:51 10° NNE visible
31 Aug 6.1 01:42:30 11° NNE 01:42:30 11° NNE 01:42:41 10° NNE visible
01 Sep 6.2 01:34:29 10° NNE 01:34:29 10° NNE 01:34:31 10° NNE visible
